Time,TemperatureF,DewpointF,PressureIn,WindDirection,WindDirectionDegrees,WindSpeedMPH,WindSpeedGustMPH,Humidity,HourlyPrecipIn,Conditions,Clouds,dailyrainin,SolarRadiationWatts/m^2,SoftwareType,DateUTC
2013-01-31 00:06:00,27.7,23.0,29.52,West,276,15.0,-999.0,83,-99.99,,,0.00,0,weatherlink.com 1.10,2013-01-31 05:06:00,
2013-01-31 00:20:00,27.4,24.0,29.52,West,279,16.0,-999.0,85,-99.99,,,0.00,0,weatherlink.com 1.10,2013-01-31 05:20:00,
2013-01-31 00:35:00,27.0,23.0,29.54,SW,233,17.0,-999.0,85,-99.99,,,0.00,0,weatherlink.com 1.10,2013-01-31 05:35:00,
2013-01-31 00:50:00,26.9,22.0,29.55,West,274,14.0,-999.0,82,-99.99,,,0.00,0,weatherlink.com 1.10,2013-01-31 05:50:00,
2013-01-31 01:05:00,26.4,22.0,29.56,West,272,17.0,-999.0,82,-99.99,,,0.00,0,weatherlink.com 1.10,2013-01-31 06:05:00,
2013-01-31 01:21:00,25.8,22.0,29.57,WSW,250,23.0,-999.0,84,-99.99,,,0.00,0,weatherlink.com 1.10,2013-01-31 06:21:00,
2013-01-31 01:35:00,25.2,21.0,29.58,West,270,17.0,-999.0,85,-99.99,,,0.00,0,weatherlink.com 1.10,2013-01-31 06:35:00,
2013-01-31 01:50:00,24.8,21.0,29.59,WSW,247,11.0,-999.0,85,-99.99,,,0.00,0,weatherlink.com 1.10,2013-01-31 06:50:00,
2013-01-31 02:06:00,24.6,21.0,29.60,West,280,15.0,-999.0,86,-99.99,,,0.00,0,weatherlink.com 1.10,2013-01-31 07:06:00,
2013-01-31 02:20:00,24.1,20.0,29.61,WNW,283,20.0,-999.0,84,-99.99,,,0.00,0,weatherlink.com 1.10,2013-01-31 07:20:00,
2013-01-31 02:35:00,23.9,19.0,29.62,West,262,24.0,-999.0,82,-99.99,,,0.00,0,weatherlink.com 1.10,2013-01-31 07:35:00,
2013-01-31 02:50:00,23.8,19.0,29.63,West,259,15.0,-999.0,82,-99.99,,,0.00,0,weatherlink.com 1.10,2013-01-31 07:50:00,
2013-01-31 03:05:00,23.1,18.0,29.64,WSW,253,14.0,-999.0,82,-99.99,,,0.00,0,weatherlink.com 1.10,2013-01-31 08:05:00,
2013-01-31 03:20:00,22.9,18.0,29.65,West,278,22.0,-999.0,81,-99.99,,,0.00,0,weatherlink.com 1.10,2013-01-31 08:20:00,
2013-01-31 03:35:00,22.7,17.0,29.65,West,264,18.0,-999.0,80,-99.99,,,0.00,0,weatherlink.com 1.10,2013-01-31 08:35:00,
2013-01-31 03:50:00,22.5,18.0,29.65,SW,230,12.0,-999.0,83,-99.99,,,0.00,0,weatherlink.com 1.10,2013-01-31 08:50:00,
2013-01-31 04:05:00,22.0,19.0,29.66,WSW,239,16.0,-999.0,87,-99.99,,,0.00,0,weatherlink.com 1.10,2013-01-31 09:05:00,
2013-01-31 04:20:00,22.3,18.0,29.66,WSW,254,15.0,-999.0,82,-99.99,,,0.00,0,weatherlink.com 1.10,2013-01-31 09:20:00,
2013-01-31 04:36:00,22.0,18.0,29.67,WSW,253,13.0,-999.0,85,-99.99,,,0.00,0,weatherlink.com 1.10,2013-01-31 09:36:00,
2013-01-31 04:51:00,21.3,17.0,29.68,WSW,245,19.0,-999.0,83,-99.99,,,0.00,0,weatherlink.com 1.10,2013-01-31 09:51:00,
2013-01-31 05:05:00,20.0,15.0,29.69,WSW,251,15.0,-999.0,79,-99.99,,,0.00,0,weatherlink.com 1.10,2013-01-31 10:05:00,
2013-01-31 05:20:00,19.2,14.0,29.70,WSW,256,18.0,-999.0,80,-99.99,,,0.00,0,weatherlink.com 1.10,2013-01-31 10:20:00,
2013-01-31 05:35:00,18.8,14.0,29.71,West,270,17.0,-999.0,81,-99.99,,,0.00,0,weatherlink.com 1.10,2013-01-31 10:35:00,
2013-01-31 05:50:00,18.8,14.0,29.71,West,260,23.0,-999.0,80,-99.99,,,0.00,0,weatherlink.com 1.10,2013-01-31 10:50:00,
2013-01-31 06:06:00,19.0,13.0,29.71,West,269,22.0,-999.0,76,-99.99,,,0.00,0,weatherlink.com 1.10,2013-01-31 11:06:00,
2013-01-31 06:20:00,19.0,14.0,29.72,WSW,240,11.0,-999.0,79,-99.99,,,0.00,0,weatherlink.com 1.10,2013-01-31 11:20:00,
2013-01-31 06:36:00,18.6,15.0,29.73,SSW,203,7.0,-999.0,84,-99.99,,,0.00,0,weatherlink.com 1.10,2013-01-31 11:36:00,
2013-01-31 06:50:00,18.3,16.0,29.73,WSW,250,21.0,-999.0,89,-99.99,,,0.00,0,weatherlink.com 1.10,2013-01-31 11:50:00,
2013-01-31 07:05:00,18.3,15.0,29.74,West,260,8.0,-999.0,86,-99.99,,,0.00,0,weatherlink.com 1.10,2013-01-31 12:05:00,
2013-01-31 07:20:00,17.8,13.0,29.75,WNW,285,14.0,-999.0,81,-99.99,,,0.00,0,weatherlink.com 1.10,2013-01-31 12:20:00,
2013-01-31 07:36:00,17.6,12.0,29.75,WSW,243,15.0,-999.0,80,-99.99,,,0.00,0,weatherlink.com 1.10,2013-01-31 12:36:00,
2013-01-31 07:50:00,17.6,12.0,29.76,West,276,18.0,-999.0,79,-99.99,,,0.00,0,weatherlink.com 1.10,2013-01-31 12:50:00,
2013-01-31 08:05:00,17.8,12.0,29.77,West,272,12.0,-999.0,79,-99.99,,,0.00,7,weatherlink.com 1.10,2013-01-31 13:05:00,
2013-01-31 08:20:00,18.0,12.0,29.78,West,264,13.0,-999.0,78,-99.99,,,0.00,18,weatherlink.com 1.10,2013-01-31 13:20:00,
2013-01-31 08:35:00,18.3,13.0,29.79,West,267,13.0,-999.0,79,-99.99,,,0.00,23,weatherlink.com 1.10,2013-01-31 13:35:00,
2013-01-31 08:50:00,18.7,14.0,29.80,West,268,9.0,-999.0,81,-99.99,,,0.00,26,weatherlink.com 1.10,2013-01-31 13:50:00,
2013-01-31 09:05:00,18.7,14.0,29.80,WSW,243,7.0,-999.0,83,-99.99,,,0.00,37,weatherlink.com 1.10,2013-01-31 14:05:00,
2013-01-31 09:20:00,18.9,15.0,29.81,WNW,297,5.0,-999.0,86,-99.99,,,0.00,39,weatherlink.com 1.10,2013-01-31 14:20:00,
2013-01-31 09:35:00,19.3,16.0,29.81,SW,217,6.0,-999.0,87,-99.99,,,0.00,70,weatherlink.com 1.10,2013-01-31 14:35:00,
2013-01-31 09:50:00,19.7,17.0,29.81,WSW,240,7.0,-999.0,88,-99.99,,,0.00,83,weatherlink.com 1.10,2013-01-31 14:50:00,
2013-01-31 10:05:00,20.0,17.0,29.82,WSW,251,6.0,-999.0,89,-99.99,,,0.00,97,weatherlink.com 1.10,2013-01-31 15:05:00,
2013-01-31 10:20:00,20.8,18.0,29.82,WSW,253,7.0,-999.0,89,-99.99,,,0.00,111,weatherlink.com 1.10,2013-01-31 15:20:00,
2013-01-31 10:35:00,21.7,18.0,29.83,NW,311,13.0,-999.0,87,-99.99,,,0.00,77,weatherlink.com 1.10,2013-01-31 15:35:00,
2013-01-31 10:50:00,22.0,18.0,29.83,West,262,8.0,-999.0,85,-99.99,,,0.00,200,weatherlink.com 1.10,2013-01-31 15:50:00,
2013-01-31 11:06:00,22.2,17.0,29.84,West,274,14.0,-999.0,80,-99.99,,,0.00,214,weatherlink.com 1.10,2013-01-31 16:06:00,
2013-01-31 11:20:00,22.3,16.0,29.84,SW,229,10.0,-999.0,77,-99.99,,,0.00,352,weatherlink.com 1.10,2013-01-31 16:20:00,
2013-01-31 11:36:00,22.5,15.0,29.84,WSW,245,12.0,-999.0,73,-99.99,,,0.00,322,weatherlink.com 1.10,2013-01-31 16:36:00,
2013-01-31 11:50:00,22.2,15.0,29.84,WSW,237,21.0,-999.0,73,-99.99,,,0.00,309,weatherlink.com 1.10,2013-01-31 16:50:00,
2013-01-31 12:05:00,22.6,14.0,29.84,WSW,256,15.0,-999.0,70,-99.99,,,0.00,345,weatherlink.com 1.10,2013-01-31 17:05:00,
2013-01-31 12:21:00,22.7,14.0,29.85,WSW,239,19.0,-999.0,68,-99.99,,,0.00,415,weatherlink.com 1.10,2013-01-31 17:21:00,
2013-01-31 12:35:00,22.6,14.0,29.85,WSW,249,12.0,-999.0,70,-99.99,,,0.00,624,weatherlink.com 1.10,2013-01-31 17:35:00,
2013-01-31 12:50:00,22.7,14.0,29.85,SW,221,24.0,-999.0,70,-99.99,,,0.00,287,weatherlink.com 1.10,2013-01-31 17:50:00,
2013-01-31 13:05:00,22.9,15.0,29.85,SW,230,20.0,-999.0,71,-99.99,,,0.00,399,weatherlink.com 1.10,2013-01-31 18:05:00,
2013-01-31 13:20:00,22.6,15.0,29.85,SSW,213,16.0,-999.0,73,-99.99,,,0.00,287,weatherlink.com 1.10,2013-01-31 18:20:00,
2013-01-31 13:35:00,22.5,15.0,29.86,WSW,253,14.0,-999.0,72,-99.99,,,0.00,334,weatherlink.com 1.10,2013-01-31 18:35:00,
2013-01-31 13:50:00,22.8,15.0,29.86,West,260,8.0,-999.0,72,-99.99,,,0.00,404,weatherlink.com 1.10,2013-01-31 18:50:00,
2013-01-31 14:05:00,22.8,14.0,29.86,West,263,13.0,-999.0,70,-99.99,,,0.00,633,weatherlink.com 1.10,2013-01-31 19:05:00,
2013-01-31 14:20:00,22.4,15.0,29.87,WNW,291,11.0,-999.0,72,-99.99,,,0.00,236,weatherlink.com 1.10,2013-01-31 19:20:00,
2013-01-31 14:35:00,21.5,13.0,29.88,NW,322,17.0,-999.0,70,-99.99,,,0.00,207,weatherlink.com 1.10,2013-01-31 19:35:00,
2013-01-31 14:51:00,20.9,14.0,29.88,WSW,252,11.0,-999.0,75,-99.99,,,0.00,230,weatherlink.com 1.10,2013-01-31 19:51:00,
2013-01-31 15:06:00,20.8,14.0,29.88,WNW,303,12.0,-999.0,76,-99.99,,,0.00,197,weatherlink.com 1.10,2013-01-31 20:06:00,
2013-01-31 15:20:00,20.3,14.0,29.89,West,266,9.0,-999.0,78,-99.99,,,0.00,128,weatherlink.com 1.10,2013-01-31 20:20:00,
2013-01-31 15:36:00,20.1,15.0,29.89,West,267,11.0,-999.0,79,-99.99,,,0.00,116,weatherlink.com 1.10,2013-01-31 20:36:00,
2013-01-31 15:51:00,19.9,15.0,29.89,WSW,245,14.0,-999.0,80,-99.99,,,0.00,216,weatherlink.com 1.10,2013-01-31 20:51:00,
2013-01-31 16:05:00,19.4,15.0,29.89,WSW,258,5.0,-999.0,82,-99.99,,,0.00,172,weatherlink.com 1.10,2013-01-31 21:05:00,
2013-01-31 16:20:00,20.0,13.0,29.89,WSW,250,12.0,-999.0,75,-99.99,,,0.00,72,weatherlink.com 1.10,2013-01-31 21:20:00,
2013-01-31 16:36:00,19.6,13.0,29.89,West,264,18.0,-999.0,75,-99.99,,,0.00,69,weatherlink.com 1.10,2013-01-31 21:36:00,
2013-01-31 16:50:00,19.6,13.0,29.90,WNW,284,20.0,-999.0,75,-99.99,,,0.00,63,weatherlink.com 1.10,2013-01-31 21:50:00,
2013-01-31 17:05:00,19.2,12.0,29.90,WNW,284,21.0,-999.0,74,-99.99,,,0.00,44,weatherlink.com 1.10,2013-01-31 22:05:00,
2013-01-31 17:21:00,19.1,12.0,29.91,West,265,12.0,-999.0,73,-99.99,,,0.00,19,weatherlink.com 1.10,2013-01-31 22:21:00,
2013-01-31 17:35:00,18.5,12.0,29.91,West,272,13.0,-999.0,75,-99.99,,,0.00,12,weatherlink.com 1.10,2013-01-31 22:35:00,
2013-01-31 17:50:00,18.1,11.0,29.92,West,281,21.0,-999.0,73,-99.99,,,0.00,5,weatherlink.com 1.10,2013-01-31 22:50:00,
2013-01-31 18:05:00,17.0,12.0,29.93,WNW,300,15.0,-999.0,80,-99.99,,,0.00,0,weatherlink.com 1.10,2013-01-31 23:05:00,
2013-01-31 18:20:00,17.2,11.0,29.94,West,270,14.0,-999.0,77,-99.99,,,0.00,0,weatherlink.com 1.10,2013-01-31 23:20:00,
2013-01-31 18:35:00,16.4,12.0,29.95,WSW,238,16.0,-999.0,82,-99.99,,,0.00,0,weatherlink.com 1.10,2013-01-31 23:35:00,
2013-01-31 18:50:00,16.2,11.0,29.96,WNW,283,7.0,-999.0,81,-99.99,,,0.00,0,weatherlink.com 1.10,2013-01-31 23:50:00,
2013-01-31 19:06:00,16.3,10.0,29.97,West,274,9.0,-999.0,77,-99.99,,,0.00,0,weatherlink.com 1.10,2013-02-01 00:06:00,
2013-01-31 19:21:00,16.4,10.0,29.98,WSW,252,16.0,-999.0,75,-99.99,,,0.00,0,weatherlink.com 1.10,2013-02-01 00:21:00,
2013-01-31 19:36:00,15.8,10.0,29.98,West,278,9.0,-999.0,77,-99.99,,,0.00,0,weatherlink.com 1.10,2013-02-01 00:36:00,
2013-01-31 19:51:00,15.5,9.0,29.99,NW,307,17.0,-999.0,75,-99.99,,,0.00,0,weatherlink.com 1.10,2013-02-01 00:51:00,
2013-01-31 20:06:00,15.0,8.0,30.00,West,264,10.0,-999.0,75,-99.99,,,0.00,0,weatherlink.com 1.10,2013-02-01 01:06:00,
2013-01-31 20:21:00,14.6,9.0,30.00,West,272,9.0,-999.0,79,-99.99,,,0.00,0,weatherlink.com 1.10,2013-02-01 01:21:00,
2013-01-31 20:36:00,14.3,8.0,30.00,West,264,14.0,-999.0,75,-99.99,,,0.00,0,weatherlink.com 1.10,2013-02-01 01:36:00,
2013-01-31 20:51:00,14.3,8.0,30.01,West,274,9.0,-999.0,75,-99.99,,,0.00,0,weatherlink.com 1.10,2013-02-01 01:51:00,
2013-01-31 21:06:00,13.8,7.0,30.01,West,268,11.0,-999.0,74,-99.99,,,0.00,0,weatherlink.com 1.10,2013-02-01 02:06:00,
2013-01-31 21:21:00,13.5,6.0,30.02,WNW,292,16.0,-999.0,73,-99.99,,,0.00,0,weatherlink.com 1.10,2013-02-01 02:21:00,
2013-01-31 21:36:00,13.2,6.0,30.02,West,274,13.0,-999.0,74,-99.99,,,0.00,0,weatherlink.com 1.10,2013-02-01 02:36:00,
2013-01-31 21:51:00,12.8,6.0,30.03,West,272,14.0,-999.0,75,-99.99,,,0.00,0,weatherlink.com 1.10,2013-02-01 02:51:00,
2013-01-31 22:06:00,12.3,6.0,30.04,WNW,285,13.0,-999.0,74,-99.99,,,0.00,0,weatherlink.com 1.10,2013-02-01 03:06:00,
2013-01-31 22:21:00,11.9,5.0,30.04,West,276,9.0,-999.0,72,-99.99,,,0.00,0,weatherlink.com 1.10,2013-02-01 03:21:00,
2013-01-31 22:36:00,11.6,4.0,30.05,West,268,15.0,-999.0,72,-99.99,,,0.00,0,weatherlink.com 1.10,2013-02-01 03:36:00,
2013-01-31 22:51:00,11.3,6.0,30.06,West,271,11.0,-999.0,78,-99.99,,,0.00,0,weatherlink.com 1.10,2013-02-01 03:51:00,
2013-01-31 23:06:00,10.5,4.0,30.07,West,264,10.0,-999.0,76,-99.99,,,0.00,0,weatherlink.com 1.10,2013-02-01 04:06:00,
2013-01-31 23:21:00,10.0,4.0,30.08,WSW,237,13.0,-999.0,76,-99.99,,,0.00,0,weatherlink.com 1.10,2013-02-01 04:21:00,
2013-01-31 23:36:00,9.9,4.0,30.09,WNW,284,8.0,-999.0,75,-99.99,,,0.00,0,weatherlink.com 1.10,2013-02-01 04:36:00,
2013-01-31 23:51:00,9.7,3.0,30.09,WNW,290,16.0,-999.0,75,-99.99,,,0.00,0,weatherlink.com 1.10,2013-02-01 04:51:00,